| time (UTC) | temp F | wind direction | speed MPH | gust MPH | rain 1hr in | rain 24hr in | rain mn in | humidity % | barometer mb |
| 20260503212355 | 61 | 230 | 3.0 | 3.0 | 0.00 | 0.00 | 0.00 | 38 | 1013.8 |
| 20260503211851 | 62 | 40 | 3.0 | 3.0 | 0.00 | 0.00 | 0.00 | 36 | 1013.9 |
| 20260503211348 | 60 | 197 | 1.0 | 1.0 | 0.00 | 0.00 | 0.00 | 35 | 1013.7 |
| 20260503210843 | 60 | 342 | 2.0 | 3.0 | 0.00 | 0.00 | 0.00 | 39 | 1013.8 |
| 20260503210341 | 60 | 235 | 5.0 | 7.0 | 0.00 | 0.00 | 0.00 | 37 | 1013.8 |
| 20260503205835 | 60 | 178 | 1.0 | 1.0 | 0.00 | 0.00 | 0.00 | 39 | 1013.6 |
| 20260503205332 | 60 | 337 | 3.0 | 5.0 | 0.00 | 0.00 | 0.00 | 37 | 1013.7 |
| 20260503204829 | 60 | 155 | 5.0 | 8.0 | 0.00 | 0.00 | 0.00 | 36 | 1013.9 |
| 20260503204327 | 61 | 254 | 3.0 | 3.0 | 0.00 | 0.00 | 0.00 | 35 | 1014.1 |
| 20260503203824 | 62 | 165 | 5.0 | 7.0 | 0.00 | 0.00 | 0.00 | 33 | 1013.9 |
| 20260503203321 | 60 | 184 | 2.0 | 2.0 | 0.00 | 0.00 | 0.00 | 35 | 1013.8 |
| 20260503202818 | 62 | 242 | 4.0 | 6.0 | 0.00 | 0.00 | 0.00 | 33 | 1014.1 |
| 20260503202316 | 62 | 31 | 3.0 | 3.0 | 0.00 | 0.00 | 0.00 | 33 | 1013.7 |
| 20260503201814 | 61 | 261 | 4.0 | 5.0 | 0.00 | 0.00 | 0.00 | 36 | 1014.1 |
| 20260503201310 | 60 | 254 | 1.0 | 2.0 | 0.00 | 0.00 | 0.00 | 39 | 1014.2 |
| 20260503200808 | 61 | 177 | 5.0 | 10.0 | 0.00 | 0.00 | 0.00 | 36 | 1013.9 |
| 20260503200303 | 60 | 185 | 8.0 | 13.0 | 0.00 | 0.00 | 0.00 | 35 | 1014.1 |
| 20260503195801 | 62 | 293 | 3.0 | 3.0 | 0.00 | 0.00 | 0.00 | 35 | 1014.1 |
| 20260503195257 | 62 | 216 | 1.0 | 2.0 | 0.00 | 0.00 | 0.00 | 36 | 1014.6 |
| 20260503194755 | 61 | 24 | 1.0 | 1.0 | 0.00 | 0.00 | 0.00 | 38 | 1014.2 |
| 20260503194250 | 60 | 300 | 5.0 | 6.0 | 0.00 | 0.00 | 0.00 | 38 | 1014.5 |
| 20260503193747 | 60 | 288 | 4.0 | 6.0 | 0.00 | 0.00 | 0.00 | 36 | 1014.7 |
| 20260503193243 | 61 | 340 | 5.0 | 10.0 | 0.00 | 0.00 | 0.00 | 37 | 1015.1 |
| 20260503192739 | 62 | 310 | 3.0 | 3.0 | 0.00 | 0.00 | 0.00 | 38 | 1015.1 |
| 20260503192234 | 60 | 258 | 3.0 | 5.0 | 0.00 | 0.00 | 0.00 | 39 | 1014.8 |
| 20260503191731 | 62 | 327 | 9.0 | 13.0 | 0.00 | 0.00 | 0.00 | 34 | 1015.0 |
| 20260503191228 | 62 | 236 | 6.0 | 7.0 | 0.00 | 0.00 | 0.00 | 36 | 1015.0 |
| 20260503190725 | 61 | 236 | 4.0 | 6.0 | 0.00 | 0.00 | 0.00 | 38 | 1015.1 |
| 20260503190222 | 61 | 252 | 7.0 | 9.0 | 0.00 | 0.00 | 0.00 | 35 | 1015.2 |
| 20260503185719 | 62 | 221 | 2.0 | 2.0 | 0.00 | 0.00 | 0.00 | 36 | 1015.2 |
| 20260503185214 | 62 | 269 | 1.0 | 1.0 | 0.00 | 0.00 | 0.00 | 36 | 1015.3 |
| 20260503184709 | 62 | 11 | 6.0 | 8.0 | 0.00 | 0.00 | 0.00 | 34 | 1015.4 |
| 20260503184206 | 62 | 303 | 8.0 | 10.0 | 0.00 | 0.00 | 0.00 | 37 | 1015.2 |
| 20260503183702 | 61 | 175 | 3.0 | 5.0 | 0.00 | 0.00 | 0.00 | 36 | 1015.4 |
| 20260503183200 | 61 | 278 | 3.0 | 3.0 | 0.00 | 0.00 | 0.00 | 36 | 1015.6 |
| 20260503182658 | 60 | 180 | 1.0 | 1.0 | 0.00 | 0.00 | 0.00 | 37 | 1015.5 |
| 20260503182156 | 59 | 238 | 7.0 | 14.0 | 0.00 | 0.00 | 0.00 | 36 | 1015.5 |
| 20260503181652 | 59 | 346 | 4.0 | 5.0 | 0.00 | 0.00 | 0.00 | 36 | 1015.7 |
| 20260503181149 | 60 | 282 | 4.0 | 5.0 | 0.00 | 0.00 | 0.00 | 36 | 1015.6 |
| 20260503180646 | 59 | 351 | 11.0 | 14.0 | 0.00 | 0.00 | 0.00 | 35 | 1015.4 |
| 20260503180144 | 60 | 319 | 8.0 | 8.0 | 0.00 | 0.00 | 0.00 | 37 | 1015.8 |
| 20260503175641 | 59 | 220 | 3.0 | 5.0 | 0.00 | 0.00 | 0.00 | 36 | 1015.8 |
| 20260503175138 | 59 | 334 | 5.0 | 8.0 | 0.00 | 0.00 | 0.00 | 41 | 1015.7 |
| 20260503174634 | 59 | 324 | 3.0 | 3.0 | 0.00 | 0.00 | 0.00 | 40 | 1016.0 |
| 20260503174132 | 58 | 326 | 6.0 | 7.0 | 0.00 | 0.00 | 0.00 | 40 | 1016.0 |
| 20260503173626 | 58 | 8 | 6.0 | 8.0 | 0.00 | 0.00 | 0.00 | 41 | 1016.0 |
| 20260503173123 | 60 | 302 | 11.0 | 13.0 | 0.00 | 0.00 | 0.00 | 38 | 1016.1 |
| 20260503172620 | 59 | 293 | 3.0 | 5.0 | 0.00 | 0.00 | 0.00 | 40 | 1016.2 |
| 20260503172118 | 60 | 185 | 3.0 | 5.0 | 0.00 | 0.00 | 0.00 | 43 | 1016.0 |
| 20260503171614 | 60 | 343 | 3.0 | 6.0 | 0.00 | 0.00 | 0.00 | 42 | 1016.5 |
| 20260503171112 | 59 | 268 | 2.0 | 2.0 | 0.00 | 0.00 | 0.00 | 46 | 1016.6 |
| 20260503170609 | 59 | 343 | 5.0 | 6.0 | 0.00 | 0.00 | 0.00 | 39 | 1016.5 |
| 20260503170105 | 59 | 316 | 1.0 | 2.0 | 0.00 | 0.00 | 0.00 | 46 | 1016.2 |
| 20260503151000 | 55 | 210 | 5.0 | 7.0 | 0.00 | 0.00 | 0.00 | 39 | 1017.5 |
| 20260503150456 | 55 | 179 | 5.0 | 6.0 | 0.00 | 0.00 | 0.00 | 41 | 1017.3 |
| 20260503131350 | 48 | 352 | 2.0 | 1.0 | 0.00 | 0.00 | 0.00 | 47 | 1018.1 |
| 20260503130847 | 49 | 175 | 1.0 | 2.0 | 0.00 | 0.00 | 0.00 | 46 | 1018.2 |
| 20260503130344 | 49 | 189 | 1.0 | 1.0 | 0.00 | 0.00 | 0.00 | 47 | 1018.1 |
| 20260503110738 | 37 | 309 | 1.0 | 1.0 | 0.00 | 0.00 | 0.00 | 70 | 1017.4 |
| 20260503110235 | 37 | 242 | 0.0 | 0.0 | 0.00 | 0.00 | 0.00 | 71 | 1017.7 |
| 20260503100156 | 36 | 286 | 1.0 | 1.0 | 0.00 | 0.00 | 0.00 | 76 | 1017.2 |
| 20260503090115 | 36 | 85 | 0.0 | 0.0 | 0.00 | 0.00 | 0.00 | 77 | 1017.5 |
| 20260503081545 | 36 | 213 | 0.0 | 0.0 | 0.00 | 0.00 | 0.00 | 79 | 1017.5 |
| 20260503081042 | 36 | 197 | 0.0 | 0.0 | 0.00 | 0.00 | 0.00 | 78 | 1017.5 |
| 20260503080538 | 36 | 237 | 0.0 | 0.0 | 0.00 | 0.00 | 0.00 | 78 | 1017.6 |
| 20260503072512 | 36 | 251 | 0.0 | 0.0 | 0.00 | 0.00 | 0.00 | 79 | 1017.3 |
| 20260503072009 | 36 | 241 | 1.0 | 1.0 | 0.00 | 0.00 | 0.00 | 80 | 1017.4 |
| 20260503071506 | 36 | 331 | 0.0 | 0.0 | 0.00 | 0.00 | 0.00 | 80 | 1017.5 |
| 20260503071003 | 36 | 309 | 0.0 | 0.0 | 0.00 | 0.00 | 0.00 | 80 | 1017.4 |
| 20260503070459 | 36 | 252 | 0.0 | 0.0 | 0.00 | 0.00 | 0.00 | 80 | 1017.4 |
| 20260503054922 | 35 | 139 | 0.0 | 0.0 | 0.00 | 0.00 | 0.00 | 86 | 1017.6 |
| 20260503054418 | 35 | 152 | 0.0 | 0.0 | 0.00 | 0.00 | 0.00 | 87 | 1017.6 |
| 20260503053917 | 35 | 169 | 0.0 | 0.0 | 0.00 | 0.00 | 0.00 | 87 | 1017.5 |
| 20260503053414 | 35 | 162 | 0.0 | 0.0 | 0.00 | 0.00 | 0.00 | 87 | 1017.6 |
| 20260503052910 | 35 | 162 | 0.0 | 0.0 | 0.00 | 0.00 | 0.00 | 86 | 1017.8 |
| 20260503052408 | 35 | 162 | 0.0 | 0.0 | 0.00 | 0.00 | 0.00 | 86 | 1017.8 |
| 20260503051904 | 35 | 162 | 0.0 | 0.0 | 0.00 | 0.00 | 0.00 | 86 | 1017.8 |
| 20260503051400 | 35 | 162 | 0.0 | 0.0 | 0.00 | 0.00 | 0.00 | 85 | 1017.9 |
| 20260503050857 | 35 | 162 | 0.0 | 0.0 | 0.00 | 0.00 | 0.00 | 85 | 1017.7 |
| 20260503050353 | 36 | 162 | 0.0 | 0.0 | 0.00 | 0.00 | 0.00 | 84 | 1017.6 |
| 20260503045851 | 36 | 162 | 0.0 | 0.0 | 0.00 | 0.00 | 0.00 | 83 | 1017.8 |
| 20260503045348 | 37 | 162 | 0.0 | 0.0 | 0.00 | 0.00 | 0.00 | 82 | 1017.9 |
| 20260503044845 | 37 | 162 | 0.0 | 0.0 | 0.00 | 0.00 | 0.00 | 80 | 1017.9 |
| 20260503044342 | 37 | 161 | 0.0 | 0.0 | 0.00 | 0.00 | 0.00 | 79 | 1017.9 |
| 20260503043839 | 38 | 161 | 0.0 | 0.0 | 0.00 | 0.00 | 0.00 | 78 | 1017.8 |
| 20260503043336 | 38 | 161 | 0.0 | 0.0 | 0.00 | 0.00 | 0.00 | 77 | 1017.8 |
| 20260503042832 | 39 | 151 | 0.0 | 0.0 | 0.00 | 0.00 | 0.00 | 76 | 1017.7 |
| 20260503042329 | 39 | 191 | 0.0 | 0.0 | 0.00 | 0.00 | 0.00 | 76 | 1017.9 |
| 20260503041825 | 39 | 195 | 0.0 | 0.0 | 0.00 | 0.00 | 0.00 | 75 | 1017.9 |
| 20260503041322 | 40 | 245 | 0.0 | 0.0 | 0.00 | 0.00 | 0.00 | 75 | 1018.2 |
| 20260503040820 | 40 | 239 | 0.0 | 0.0 | 0.00 | 0.00 | 0.00 | 75 | 1018.0 |
| 20260503040317 | 40 | 193 | 0.0 | 0.0 | 0.00 | 0.00 | 0.00 | 76 | 1017.9 |
| 20260503035814 | 40 | 194 | 0.0 | 1.0 | 0.00 | 0.13 | 0.13 | 76 | 1018.0 |
| 20260503035311 | 39 | 168 | 1.0 | 1.0 | 0.00 | 0.13 | 0.13 | 76 | 1017.8 |
| 20260503034808 | 39 | 159 | 0.0 | 0.0 | 0.00 | 0.13 | 0.13 | 75 | 1018.1 |
| 20260503034305 | 39 | 140 | 0.0 | 0.0 | 0.00 | 0.13 | 0.13 | 76 | 1017.8 |
| 20260503033803 | 39 | 59 | 0.0 | 0.0 | 0.00 | 0.13 | 0.13 | 75 | 1018.0 |
| 20260503033300 | 39 | 166 | 0.0 | 0.0 | 0.00 | 0.13 | 0.13 | 75 | 1018.1 |
| 20260503032758 | 40 | 175 | 0.0 | 0.0 | 0.00 | 0.13 | 0.13 | 74 | 1018.1 |
| 20260503032257 | 39 | 186 | 0.0 | 0.0 | 0.00 | 0.13 | 0.13 | 74 | 1018.0 |
| 20260503031753 | 39 | 140 | 0.0 | 0.0 | 0.00 | 0.13 | 0.13 | 75 | 1018.3 |
| 20260503031251 | 39 | 141 | 0.0 | 0.0 | 0.00 | 0.13 | 0.13 | 75 | 1018.2 |
| 20260503030747 | 39 | 155 | 0.0 | 0.0 | 0.00 | 0.13 | 0.13 | 75 | 1018.1 |
| 20260503030244 | 39 | 69 | 0.0 | 0.0 | 0.00 | 0.13 | 0.13 | 76 | 1018.1 |
| 20260503025741 | 39 | 7 | 0.0 | 0.0 | 0.00 | 0.13 | 0.13 | 80 | 1018.2 |
| 20260503025238 | 39 | 7 | 0.0 | 0.0 | 0.00 | 0.13 | 0.13 | 81 | 1018.1 |
| 20260503024735 | 39 | 7 | 0.0 | 0.0 | 0.00 | 0.13 | 0.13 | 82 | 1018.3 |
| 20260503024232 | 39 | 7 | 0.0 | 0.0 | 0.00 | 0.13 | 0.13 | 84 | 1018.4 |
| 20260503023729 | 39 | 7 | 0.0 | 0.0 | 0.00 | 0.13 | 0.13 | 84 | 1018.4 |
| 20260503023226 | 39 | 7 | 0.0 | 0.0 | 0.00 | 0.13 | 0.13 | 83 | 1018.6 |
| 20260503022722 | 39 | 7 | 0.0 | 0.0 | 0.00 | 0.13 | 0.13 | 83 | 1018.4 |
| 20260503022222 | 39 | 7 | 0.0 | 0.0 | 0.00 | 0.13 | 0.13 | 83 | 1018.3 |
| 20260503021719 | 39 | 7 | 0.0 | 0.0 | 0.00 | 0.13 | 0.13 | 82 | 1018.3 |
| 20260503021215 | 39 | 7 | 0.0 | 0.0 | 0.00 | 0.13 | 0.13 | 81 | 1018.5 |
| 20260503020713 | 39 | 7 | 0.0 | 0.0 | 0.00 | 0.13 | 0.13 | 83 | 1018.4 |
| 20260503020211 | 39 | 7 | 0.0 | 0.0 | 0.00 | 0.13 | 0.13 | 84 | 1018.5 |
| 20260503015707 | 39 | 7 | 0.0 | 0.0 | 0.00 | 0.13 | 0.13 | 83 | 1018.5 |
| 20260503015204 | 38 | 7 | 0.0 | 0.0 | 0.00 | 0.13 | 0.13 | 82 | 1018.2 |
| 20260503014700 | 39 | 7 | 0.0 | 0.0 | 0.00 | 0.13 | 0.13 | 84 | 1018.4 |
| 20260503014158 | 39 | 7 | 0.0 | 0.0 | 0.00 | 0.13 | 0.13 | 85 | 1018.2 |
| 20260503013655 | 39 | 7 | 0.0 | 0.0 | 0.00 | 0.13 | 0.13 | 84 | 1018.4 |
| 20260503013153 | 39 | 7 | 0.0 | 0.0 | 0.00 | 0.13 | 0.13 | 84 | 1018.3 |
| 20260503012649 | 39 | 7 | 0.0 | 0.0 | 0.00 | 0.13 | 0.13 | 83 | 1018.4 |
| 20260503012147 | 39 | 7 | 0.0 | 0.0 | 0.00 | 0.13 | 0.13 | 83 | 1018.3 |
| 20260503011643 | 39 | 7 | 0.0 | 0.0 | 0.00 | 0.13 | 0.13 | 82 | 1018.1 |
| 20260503011140 | 39 | 7 | 0.0 | 0.0 | 0.00 | 0.13 | 0.13 | 81 | 1018.2 |
| 20260503010636 | 39 | 7 | 0.0 | 0.0 | 0.00 | 0.13 | 0.13 | 79 | 1018.1 |
| 20260503010134 | 39 | 7 | 0.0 | 0.0 | 0.00 | 0.13 | 0.13 | 78 | 1018.4 |
| 20260503005631 | 39 | 7 | 0.0 | 0.0 | 0.00 | 0.13 | 0.13 | 78 | 1018.6 |
| 20260503005128 | 39 | 7 | 0.0 | 0.0 | 0.00 | 0.13 | 0.13 | 78 | 1018.4 |
| 20260503004624 | 39 | 7 | 0.0 | 0.0 | 0.00 | 0.13 | 0.13 | 79 | 1018.3 |
| 20260503004123 | 40 | 7 | 0.0 | 0.0 | 0.00 | 0.13 | 0.13 | 78 | 1018.3 |
| 20260503003619 | 40 | 7 | 0.0 | 0.0 | 0.00 | 0.13 | 0.13 | 77 | 1018.1 |
| 20260503003116 | 40 | 7 | 0.0 | 0.0 | 0.00 | 0.13 | 0.13 | 75 | 1018.1 |
| 20260503002613 | 40 | 7 | 0.0 | 0.0 | 0.00 | 0.13 | 0.13 | 73 | 1018.2 |
| 20260503002110 | 41 | 7 | 0.0 | 0.0 | 0.00 | 0.13 | 0.13 | 72 | 1018.1 |
| 20260503001606 | 41 | 7 | 0.0 | 0.0 | 0.00 | 0.13 | 0.13 | 71 | 1018.1 |
| 20260503001103 | 41 | 7 | 0.0 | 0.0 | 0.00 | 0.13 | 0.13 | 69 | 1018.2 |
| 20260503000601 | 41 | 7 | 0.0 | 0.0 | 0.00 | 0.13 | 0.13 | 65 | 1018.1 |
| 20260503000058 | 41 | 7 | 0.0 | 0.0 | 0.00 | 0.13 | 0.13 | 61 | 1018.1 |
| 20260502235554 | 42 | 7 | 0.0 | 0.0 | 0.00 | 0.13 | 0.13 | 60 | 1018.0 |
| 20260502235052 | 42 | 7 | 0.0 | 0.0 | 0.00 | 0.13 | 0.13 | 62 | 1017.9 |
| 20260502234548 | 42 | 7 | 0.0 | 0.0 | 0.00 | 0.13 | 0.13 | 58 | 1018.2 |
| 20260502234046 | 42 | 8 | 1.0 | 1.0 | 0.00 | 0.13 | 0.13 | 58 | 1018.1 |
| 20260502233546 | 43 | 9 | 0.0 | 0.0 | 0.00 | 0.13 | 0.13 | 59 | 1017.9 |
| 20260502233043 | 43 | 9 | 0.0 | 0.0 | 0.00 | 0.13 | 0.13 | 60 | 1017.9 |
| 20260502232539 | 43 | 355 | 2.0 | 2.0 | 0.00 | 0.13 | 0.13 | 58 | 1017.9 |
| 20260502232037 | 43 | 41 | 1.0 | 1.0 | 0.00 | 0.13 | 0.13 | 57 | 1017.9 |
| 20260502231533 | 43 | 352 | 0.0 | 0.0 | 0.00 | 0.13 | 0.13 | 58 | 1018.1 |
| 20260502231032 | 43 | 311 | 1.0 | 1.0 | 0.00 | 0.13 | 0.13 | 54 | 1018.0 |
| 20260502230530 | 44 | 22 | 1.0 | 1.0 | 0.00 | 0.13 | 0.13 | 57 | 1018.0 |
| 20260502230028 | 43 | 27 | 0.0 | 0.0 | 0.00 | 0.13 | 0.13 | 57 | 1017.9 |
| 20260502225523 | 43 | 330 | 2.0 | 2.0 | 0.00 | 0.13 | 0.13 | 55 | 1018.1 |
| 20260502225020 | 44 | 305 | 2.0 | 2.0 | 0.00 | 0.13 | 0.13 | 54 | 1018.1 |
| 20260502224516 | 44 | 319 | 1.0 | 1.0 | 0.00 | 0.13 | 0.13 | 54 | 1018.2 |
| 20260502224014 | 43 | 29 | 0.0 | 1.0 | 0.00 | 0.13 | 0.13 | 54 | 1018.1 |
| 20260502223511 | 44 | 307 | 2.0 | 2.0 | 0.00 | 0.13 | 0.13 | 51 | 1018.0 |
| 20260502223009 | 44 | 352 | 1.0 | 1.0 | 0.00 | 0.13 | 0.13 | 54 | 1018.1 |
| 20260502222506 | 44 | 10 | 0.0 | 1.0 | 0.00 | 0.13 | 0.13 | 55 | 1018.1 |
| 20260502222003 | 44 | 337 | 1.0 | 2.0 | 0.00 | 0.13 | 0.13 | 56 | 1018.2 |
| 20260502221458 | 44 | 339 | 3.0 | 7.0 | 0.00 | 0.13 | 0.13 | 56 | 1018.2 |
| 20260502220956 | 44 | 333 | 1.0 | 1.0 | 0.00 | 0.13 | 0.13 | 57 | 1018.2 |
| 20260502220451 | 44 | 10 | 2.0 | 2.0 | 0.00 | 0.13 | 0.13 | 56 | 1018.2 |
| 20260502215948 | 44 | 10 | 3.0 | 5.0 | 0.00 | 0.13 | 0.13 | 50 | 1018.1 |
| 20260502215445 | 44 | 20 | 1.0 | 2.0 | 0.00 | 0.13 | 0.13 | 53 | 1018.1 |
| 20260502214942 | 44 | 19 | 2.0 | 2.0 | 0.00 | 0.13 | 0.13 | 56 | 1018.1 |
| 20260502214439 | 43 | 26 | 1.0 | 1.0 | 0.00 | 0.13 | 0.13 | 56 | 1018.1 |
| 20260502213936 | 44 | 331 | 4.0 | 3.0 | 0.00 | 0.13 | 0.13 | 55 | 1018.0 |
| 20260502213433 | 44 | 326 | 4.0 | 6.0 | 0.00 | 0.13 | 0.13 | 54 | 1018.1 |
| 20260502212932 | 44 | 23 | 1.0 | 2.0 | 0.00 | 0.13 | 0.13 | 58 | 1018.0 |